Regional Weather Roundup
Issued by NWS

Home | Current Version | Previous Version | Graphics & Text | Print | Product List | Glossary On
Versions: 1 2 3 4 5 6 7 8 9 10 11 12 13 14 15 16 17 18 19 20 21 22 23 24 25 26 27 28 29 30 31 32 33 34 35 36 37 38 39 40 41 42 43 44 45 46 47 48 49 50
000
ASUS44 KMEG 160000
RWRTN
TENNESSEE HOURLY STATE WEATHER ROUNDUP
NATIONAL WEATHER SERVICE MEMPHIS TN
600 PM CST MON JAN 15 2018

TNZ002-004-019-021-049-052-054-088>092-160100-
WEST TENNESSEE

CITY           SKY/WX    TMP DP  RH WIND       PRES   REMARKS
MEMPHIS INTL   CLOUDY    37  28  70 N14       30.40R WCI  28
NWS MEMPHIS      N/A     36 N/A N/A MISG        N/A
JACKSON        CLOUDY    34  29  82 NW7       30.41R WCI  28
DYERSBURG      CLOUDY    32  29  88 NW6       30.42F WCI  26
$$

TNZ008-025-027-028-033-062-065-066-160100-
NORTH MIDDLE TENNESSEE

CITY           SKY/WX    TMP DP  RH WIND       PRES   REMARKS
NASHVILLE      CLOUDY    41  24  51 VRB7      30.35R
CLARKSVILLE    CLOUDY    31  28  89 NW9       30.38R WCI  23
SMYRNA         MOCLDY    39  25  57 NW7       30.35R WCI  34
CROSSVILLE     FAIR      35  19  52 CALM      30.31R
$$

TNZ061-075-076-078-094-096-097-160100-
SOUTH MIDDLE TENNESSEE

CITY           SKY/WX    TMP DP  RH WIND       PRES   REMARKS
WINCHESTER     CLEAR     41  21  45 CALM      30.34S
$$

TNZ017-018-042-046-047-160100-
NORTHEAST TENNESSEE

CITY           SKY/WX    TMP DP  RH WIND       PRES   REMARKS
TRI CITIES     FAIR      32  24  72 NW3       30.35R
$$

TNZ012-013-036-069-073-074-160100-
CENTRAL EAST TENNESSEE

CITY           SKY/WX    TMP DP  RH WIND       PRES   REMARKS
KNOXVILLE      FAIR      37  23  56 SW6       30.35R WCI  32
OAK RIDGE      FAIR      37  23  56 CALM      30.36S
$$

TNZ083-085-099-160100-
SOUTHEAST TENNESSEE

CITY           SKY/WX    TMP DP  RH WIND       PRES   REMARKS
CHATTANOOGA    FAIR      44  23  43 S5        30.37R
$$

SKY/WX REPORTED AS FAIR MEANS FEW OR NO CLOUDS BELOW
12 THOUSAND FEET.





USA.gov is the U.S. government's official web portal to all federal, state and local government web resources and services.